CAPE
0 0 0 0 0 0 0 0 0 0 0 0 0 0 0 0 0 25 130 61 0 0 527 420 137 100 767 1046 1042 927 908 870 716 624 502 470 476 583 462 333 312 259 49 22 0 0 0 0 0
0 0 0 0 0 0 0 0 0 0 0 0 0 0 0 0 0 0 0 47 0 36 555 332 200 112 405 963 935 917 939 974 911 842 621 548 498 506 309 262 166 34 4 0 0 0 0 0 0
0 0 0 0 0 0 0 0 0 0 0 0 0 0 0 0 0 0 0 57 0 79 464 442 211 150 194 591 790 842 870 916 969 860 524 416 424 400 291 168 27 17 0 0 0 0 0 0 0
0 0 0 0 0 0 0 0 0 0 0 0 0 0 0 0 0 15 165 105 0 70 269 943 209 184 183 240 330 563 723 812 791 554 317 219 276 246 141 0 0 0 0 0 0 0 0 0 0
0 0 0 0 0 0 0 0 0 0 0 0 0 0 0 0 0 85 147 152 0 30 161 1270 394 271 292 310 242 207 354 465 364 243 174 90 113 80 0 0 0 0 0 0 0 0 0 0 0
0 0 0 0 0 0 0 0 0 0 0 0 0 0 0 0 0 52 162 144 27 0 142 903 874 543 432 506 321 243 190 192 173 172 100 34 38 24 0 0 0 0 0 0 0 0 0 0 0
0 0 0 0 0 0 0 0 0 0 0 0 0 0 0 0 0 35 151 104 23 3 147 675 859 866 516 525 613 399 289 240 226 225 165 74 68 38 49 24 0 0 0 0 0 0 0 0 0
0 0 0 0 0 0 0 0 0 0 0 0 0 0 0 0 0 0 166 100 18 46 126 375 468 501 553 613 727 716 632 450 362 344 304 226 164 128 118 101 24 0 0 0 0 0 0 0 0
0 0 0 0 0 0 0 0 0 0 0 0 0 0 0 0 0 0 16 174 39 52 98 246 256 302 302 308 636 767 727 787 640 558 576 430 171 369 227 116 132 23 25 42 19 2 0 0 0
0 0 0 0 0 0 0 0 0 0 0 0 0 0 0 0 0 0 0 135 63 29 27 149 210 224 234 184 342 712 564 505 483 427 539 477 201 262 276 223 174 224 107 73 63 25 10 6 0
0 0 0 0 0 0 0 0 0 0 0 0 0 0 0 0 0 0 0 1 167 26 20 113 392 459 354 203 314 467 341 355 388 436 559 642 314 401 515 318 513 317 241 129 81 38 2 0 0
0 0 0 0 0 0 0 0 0 0 0 0 1 0 0 0 0 0 0 0 5 106 50 73 334 734 811 370 327 318 258 274 288 396 789 762 705 556 381 160 137 248 179 214 90 27 14 3 0
0 0 0 0 0 0 0 0 0 0 0 0 0 0 0 0 0 0 0 0 0 0 102 69 142 486 728 627 319 272 261 198 244 341 647 704 502 341 264 158 108 75 107 59 86 13 0 13 10
0 0 0 0 0 0 0 0 0 0 0 0 0 0 0 0 0 0 0 0 0 0 0 2 183 283 435 220 254 302 352 186 205 123 182 628 436 295 212 200 123 42 18 4 1 15 19 31 24
0 0 0 0 0 0 0 0 0 0 0 0 0 0 0 0 0 0 0 0 0 0 0 0 219 462 490 294 428 191 143 172 130 84 143 260 476 276 253 63 55 4 2 20 6 40 90 61 91
0 0 0 0 0 0 0 0 0 0 0 0 0 0 0 0 0 0 0 0 0 0 0 0 0 15 572 714 389 279 194 68 65 48 48 213 320 273 221 28 13 0 10 44 34 111 166 232 263
0 0 0 0 0 0 0 0 0 0 0 0 0 0 0 0 0 0 0 0 0 0 0 0 0 0 20 728 560 555 415 264 80 32 0 54 160 219 95 0 0 0 1 21 103 217 322 472 579
0 0 0 0 0 0 0 0 0 0 0 0 0 0 0 0 0 0 0 0 0 0 0 0 0 0 0 116 988 450 412 402 251 37 20 34 106 113 84 3 3 1 0 1 210 430 634 672 887
0 0 0 0 0 0 0 0 0 0 0 0 0 0 0 0 0 0 0 0 0 0 0 0 0 0 0 0 0 74 604 510 412 449 190 37 113 147 110 19 1 0 0 4 573 853 930 1062 1031
0 0 0 0 0 0 0 0 0 0 0 0 0 0 0 0 0 0 0 0 0 0 0 0 0 0 0 0 0 0 0 67 898 663 721 331 168 164 171 63 108 82 30 367 943 1181 1089 1170 1265
0 0 0 0 0 0 0 0 0 0 0 0 0 0 0 0 0 0 0 0 0 0 0 0 0 0 0 0 0 0 0 11 232 438 902 1019 550 484 404 337 298 613 694 946 1325 1542 1311 1278 1375
0 0 0 0 0 0 0 0 0 0 0 0 0 0 0 0 0 0 0 0 0 0 0 0 0 0 0 0 0 0 0 0 0 55 581 1399 1381 1004 781 972 1130 927 1163 1225 1565 1607 1439 1643 1529
0 0 0 0 0 0 0 0 0 0 0 0 0 0 0 0 0 0 0 0 0 0 0 0 0 0 0 0 0 0 0 0 0 21 167 1481 2019 1708 1350 1309 1072 1241 1583 1730 1679 1581 1658 1655 1608
0 0 0 0 0 0 0 0 0 0 0 0 0 0 0 0 0 0 0 0 0 0 0 0 0 0 0 0 0 0 0 0 0 7 214 444 1406 1928 1727 1425 1531 1867 2052 1928 1847 1879 1847 1834 1643
0 1 0 0 0 0 0 0 0 0 0 0 0 0 0 0 0 0 0 0 0 0 0 0 0 0 0 0 0 0 0 0 2 0 0 211 754 1026 1804 1922 1803 2189 2421 2271 2051 2000 1960 1891 1426
18 12 5 1 0 1 0 0 0 0 0 0 0 0 0 0 0 0 0 0 0 0 0 0 0 0 0 0 0 0 0 0 0 0 0 12 306 818 1255 2507 2449 2542 2426 2296 2122 1979 1940 1577 1561
8 1 6 1 1 0 0 0 0 0 0 0 0 0 0 0 0 0 0 0 0 0 0 0 0 0 0 0 0 0 0 0 0 0 0 54 267 661 1128 2125 2422 2451 2206 2019 2091 1920 1902 1923 2011
0 7 9 3 0 0 0 0 0 0 0 0 0 1 0 0 0 0 0 0 0 0 0 0 0 0 0 0 0 0 0 0 0 0 0 1 219 646 651 1976 2253 2236 2043 2027 2062 2108 2305 2241 2176
9 1 6 9 24 16 0 3 0 0 0 0 0 0 1 0 0 0 0 0 0 0 0 0 0 0 0 0 0 0 0 0 0 0 0 0 208 511 571 1453 2020 2060 1830 2039 2338 2401 2371 2249 2005
2 0 31 14 8 5 11 0 0 0 0 0 0 0 0 0 0 0 0 0 0 0 0 0 0 0 0 0 0 0 0 0 0 0 0 11 100 391 307 1187 1687 1559 1700 2274 2558 2475 2101 2024 1886
CIN
-0 -0 -0 -0 -0 -0 -0 -0 -0 -0 -0 -0 -0 -0 -0 -0 -0 -6 -170 -213 -0 -28 -438 -600 -656 -618 -383 -267 -217 -210 -191 -200 -210 -211 -223 -212 -193 -176 -191 -211 -197 -209 -243 -267 -0 -0 -0 -0 -0
-0 -0 -0 -0 -0 -0 -0 -0 -0 -0 -0 -0 -0 -0 -0 -0 -0 -0 -0 -268 -0 -253 -418 -514 -641 -616 -465 -301 -277 -244 -228 -215 -215 -211 -227 -225 -221 -214 -235 -235 -253 -274 -161 -0 -0 -0 -0 -0 -0
-0 -0 -0 -0 -0 -0 -0 -0 -0 -0 -0 -0 -0 -0 -0 -0 -0 -0 -0 -317 -0 -374 -402 -430 -632 -599 -538 -377 -309 -280 -260 -248 -228 -236 -262 -265 -252 -253 -257 -279 -307 -307 -0 -0 -0 -0 -0 -0 -0
-0 -0 -0 -0 -0 -0 -0 -0 -0 -0 -0 -0 -0 -0 -0 -0 -0 -139 -293 -298 -0 -363 -351 -443 -632 -600 -574 -510 -440 -347 -290 -266 -266 -285 -316 -308 -296 -300 -310 -6 -0 -0 -0 -0 -0 -0 -0 -0 -0
-0 -0 -0 -0 -0 -0 -0 -0 -0 -0 -0 -0 -0 -0 -0 -0 -12 -367 -370 -346 -0 -342 -331 -404 -597 -562 -521 -502 -512 -486 -378 -329 -338 -352 -364 -347 -344 -353 -0 -0 -0 -0 -0 -0 -0 -0 -0 -0 -0
-0 -0 -0 -0 -0 -0 -0 -0 -0 -0 -0 -0 -0 -0 -0 -0 -0 -419 -429 -374 -378 -0 -319 -369 -513 -515 -477 -434 -463 -470 -492 -452 -425 -391 -396 -404 -385 -372 -0 -0 -0 -0 -0 -0 -0 -0 -0 -0 -0
-0 -0 -0 -0 -0 -0 -0 -0 -0 -0 -0 -0 -0 -0 -0 -0 -0 -380 -463 -442 -403 -296 -338 -365 -434 -439 -471 -421 -353 -386 -426 -430 -423 -397 -385 -405 -380 -386 -362 -399 -0 -0 -0 -0 -0 -0 -0 -0 -0
-0 -0 -0 -0 -0 -0 -0 -0 -0 -0 -0 -0 -0 -0 -0 -0 -0 -0 -318 -453 -410 -381 -345 -328 -410 -403 -366 -366 -354 -313 -306 -358 -374 -367 -373 -379 -375 -382 -374 -389 -441 -21 -20 -14 -0 -0 -0 -0 -0
-0 -0 -0 -0 -0 -0 -0 -0 -0 -0 -0 -0 -0 -0 -0 -0 -0 -0 -205 -347 -400 -373 -377 -307 -347 -352 -344 -309 -305 -310 -301 -270 -315 -313 -308 -333 -325 -292 -301 -381 -361 -449 -445 -411 -441 -209 -0 -0 -0
-0 -0 -0 -0 -0 -0 -0 -0 -0 -0 -0 -0 -0 -0 -0 -0 -0 -0 -0 -265 -362 -401 -370 -289 -308 -316 -308 -301 -272 -270 -273 -275 -277 -279 -260 -281 -282 -257 -245 -269 -376 -347 -418 -432 -438 -498 -504 -416 -0
-0 -0 -0 -0 -0 -0 -0 -0 -0 -0 -0 -0 -1 -0 -0 -0 -0 -0 -0 -51 -235 -352 -398 -345 -321 -310 -277 -261 -276 -259 -294 -287 -267 -253 -236 -242 -236 -241 -237 -228 -247 -295 -362 -374 -444 -473 -465 -0 -0
-0 -0 -0 -0 -0 -0 -0 -0 -0 -0 -0 -0 -0 -0 -0 -0 -0 -0 -0 -0 -48 -262 -356 -445 -348 -305 -286 -297 -301 -287 -276 -275 -256 -250 -237 -226 -228 -257 -268 -263 -247 -272 -285 -319 -344 -368 -415 -289 -0
-0 -0 -0 -0 -0 -0 -0 -0 -0 -0 -0 -0 -0 -0 -0 -0 -0 -0 -0 -0 -0 -0 -196 -262 -353 -344 -327 -343 -324 -337 -305 -281 -252 -257 -257 -246 -266 -287 -310 -275 -268 -280 -286 -329 -344 -391 -0 -442 -458
-0 -0 -0 -0 -0 -0 -0 -0 -0 -0 -0 -0 -0 -0 -0 -0 -0 -0 -0 -0 -0 -0 -0 -87 -232 -349 -298 -356 -370 -346 -366 -303 -318 -314 -314 -303 -290 -310 -300 -324 -328 -345 -356 -356 -123 -388 -409 -427 -409
-0 -0 -0 -0 -0 -0 -0 -0 -0 -0 -0 -0 -0 -0 -0 -0 -0 -0 -0 -0 -0 -0 -0 -0 -184 -193 -331 -280 -301 -344 -293 -371 -367 -380 -366 -377 -359 -352 -376 -365 -375 -367 -359 -419 -409 -399 -426 -392 -378
-0 -0 -0 -0 -0 -0 -0 -0 -0 -0 -0 -0 -0 -0 -0 -0 -0 -0 -0 -0 -0 -0 -0 -0 -0 -96 -177 -249 -326 -253 -338 -361 -348 -404 -382 -409 -409 -403 -415 -386 -370 -0 -381 -381 -363 -342 -327 -287 -267
-0 -0 -0 -0 -0 -0 -0 -0 -0 -0 -0 -0 -0 -0 -0 -0 -0 -0 -0 -0 -0 -0 -0 -0 -0 -0 -224 -216 -291 -266 -276 -362 -316 -365 -0 -376 -427 -434 -463 -0 -0 -0 -158 -351 -276 -276 -242 -194 -203
-0 -0 -0 -0 -0 -0 -0 -0 -0 -0 -0 -0 -0 -0 -0 -0 -0 -0 -0 -0 -0 -0 -0 -0 -0 -0 -0 -220 -101 -258 -274 -351 -336 -252 -384 -392 -445 -473 -565 -264 -368 -323 -20 -76 -212 -210 -168 -160 -149
-0 -0 -0 -0 -0 -0 -0 -0 -0 -0 -0 -0 -0 -0 -0 -0 -0 -0 -0 -0 -0 -0 -0 -0 -0 -0 -0 -0 -0 -143 -147 -311 -324 -261 -342 -376 -465 -484 -572 -549 -255 -0 -1 -120 -185 -144 -158 -118 -136
-0 -0 -0 -0 -0 -0 -0 -0 -0 -0 -0 -0 -0 -0 -0 -0 -0 -0 -0 -0 -0 -0 -0 -0 -0 -0 -0 -0 -0 -0 -0 -191 -230 -214 -253 -329 -408 -491 -545 -555 -443 -416 -337 -345 -255 -141 -111 -102 -109
-0 -0 -0 -0 -0 -0 -0 -0 -0 -0 -0 -0 -0 -0 -0 -0 -0 -0 -0 -0 -0 -0 -0 -0 -0 -0 -0 -0 -0 -0 -0 -109 -200 -173 -205 -272 -400 -453 -515 -460 -432 -375 -308 -215 -231 -144 -118 -86 -102
-0 -0 -0 -0 -0 -0 -0 -0 -0 -0 -0 -0 -0 -0 -0 -0 -0 -0 -0 -0 -0 -0 -0 -0 -0 -0 -0 -0 -0 -0 -0 -0 -15 -101 -139 -112 -251 -361 -405 -366 -345 -386 -264 -183 -183 -172 -134 -112 -77
-0 -0 -0 -0 -0 -0 -0 -0 -0 -0 -0 -0 -0 -0 -0 -0 -0 -0 -0 -0 -0 -0 -0 -0 -0 -0 -0 -0 -0 -0 -0 -0 -0 -155 -133 -42 -58 -282 -295 -329 -378 -286 -234 -217 -198 -169 -129 -111 -76
-0 -0 -0 -0 -0 -0 -0 -0 -0 -0 -0 -0 -0 -0 -0 -0 -0 -0 -0 -0 -0 -0 -0 -0 -0 -0 -0 -0 -0 -0 -0 -0 -0 -152 -190 -37 -72 -210 -274 -306 -288 -234 -189 -194 -212 -152 -130 -114 -135
-0 -4 -0 -0 -0 -0 -0 -0 -0 -0 -0 -0 -0 -0 -0 -0 -0 -0 -0 -0 -0 -0 -0 -0 -0 -0 -0 -0 -0 -0 -0 -0 -288 -84 -0 -203 -187 -187 -222 -257 -244 -222 -190 -180 -186 -179 -122 -148 -176
-9 -3 -4 -3 -0 -3 -0 -0 -0 -0 -0 -0 -0 -0 -0 -0 -0 -0 -0 -0 -0 -0 -0 -0 -0 -0 -0 -0 -0 -0 -0 -0 -0 -39 -0 -358 -246 -258 -218 -193 -224 -205 -188 -160 -143 -157 -133 -212 -151
-2 -6 -7 -3 -4 -0 -0 -0 -0 -0 -0 -0 -0 -0 -0 -0 -0 -0 -0 -0 -0 -0 -0 -0 -0 -0 -0 -0 -0 -0 -0 -0 -0 -0 -0 -368 -326 -267 -233 -207 -200 -205 -152 -189 -143 -149 -154 -167 -60
-0 -5 -3 -2 -0 -0 -0 -0 -0 -0 -0 -0 -0 -0 -0 -0 -0 -0 -0 -0 -0 -0 -0 -0 -0 -0 -0 -0 -0 -0 -0 -0 -0 -0 -0 -95 -335 -337 -249 -164 -181 -209 -162 -166 -155 -142 -123 -84 -16
-9 -3 -3 -3 -5 -2 -0 -5 -0 -0 -0 -0 -0 -0 -2 -0 -0 -0 -0 -0 -0 -0 -0 -0 -0 -0 -0 -0 -0 -0 -0 -0 -0 -0 -0 -0 -356 -368 -294 -183 -159 -175 -182 -132 -119 -101 -93 -42 -16
-3 -0 -3 -5 -3 -6 -3 -0 -0 -0 -0 -0 -0 -1 -0 -0 -0 -0 -0 -0 -0 -0 -0 -0 -0 -0 -0 -0 -0 -0 -0 -0 -0 -0 -0 -423 -407 -415 -319 -173 -164 -178 -148 -98 -91 -102 -76 -33 -17
Wind_Speed
24 21 21 23 25 23 28 22 23 17 16 17 21 23 23 25 22 17 15 15 5 16 22 26 25 25 25 27 30 30 30 30 30 29 29 29 29 28 27 26 25 24 23 22 21 21 21 21 21
23 20 19 26 31 30 28 25 24 21 21 23 22 22 24 27 21 26 28 18 7 12 22 25 25 25 25 26 29 30 30 29 29 28 28 28 28 27 26 25 23 22 22 21 20 20 20 20 20
20 19 22 27 32 41 32 24 25 18 22 22 21 22 21 21 22 27 27 24 7 15 22 24 25 24 25 25 27 28 29 29 28 27 27 27 26 25 25 23 22 21 20 20 19 18 18 18 18
18 19 21 32 33 36 37 27 21 23 23 21 23 23 19 18 28 30 31 29 9 11 24 23 27 26 28 27 26 26 27 27 27 26 26 25 25 24 24 23 21 20 19 18 17 16 16 16 16
18 23 34 34 37 32 33 33 28 25 24 23 23 23 23 21 27 29 27 23 9 11 24 22 27 26 27 27 26 25 25 25 26 24 24 25 24 23 22 21 19 18 18 17 16 15 14 14 14
25 26 37 41 39 34 34 32 34 36 28 27 24 26 21 24 27 27 24 23 13 12 15 19 24 23 23 24 24 23 22 23 23 22 22 22 22 21 19 17 17 16 15 15 14 13 12 12 12
29 31 42 40 42 39 36 30 37 36 35 27 25 27 23 25 26 24 21 20 16 12 12 14 24 22 19 18 16 17 18 20 19 19 20 19 18 17 17 15 15 14 13 13 12 11 10 10 9
24 32 42 41 41 40 28 31 34 39 37 28 26 25 28 26 26 24 20 20 17 14 12 12 18 18 18 16 13 10 9 13 15 15 16 17 15 14 15 14 13 12 11 11 10 10 8 8 7
18 34 43 42 39 36 28 28 26 28 34 36 29 29 29 30 29 25 22 20 20 17 16 13 14 14 13 13 11 9 8 7 10 9 10 12 13 12 13 12 11 10 9 9 8 8 8 6 5
20 33 40 34 33 35 29 29 26 26 32 37 39 33 29 31 29 26 22 22 24 24 21 18 15 14 14 12 11 11 9 10 14 13 12 14 14 11 11 8 8 8 8 7 6 6 6 6 4
20 36 34 34 31 31 33 31 28 31 38 36 39 32 32 32 30 27 25 21 25 26 25 25 23 20 19 16 16 14 11 9 7 11 10 9 11 7 7 6 6 6 6 5 5 4 4 4 4
24 24 28 32 29 29 32 33 34 34 36 32 38 38 37 34 33 30 27 22 20 25 28 30 31 25 25 23 23 24 20 17 13 9 6 4 5 2 3 4 4 5 5 5 4 5 4 5 4
25 25 24 24 28 32 34 37 37 40 34 32 35 38 34 33 32 31 27 25 21 22 23 32 32 34 34 32 31 33 28 24 22 21 14 6 4 2 1 2 3 4 4 5 4 4 6 7 6
24 25 27 26 26 28 36 40 39 39 29 34 35 48 41 34 31 31 29 27 26 23 24 25 32 29 28 36 40 37 36 33 28 28 23 14 9 7 7 5 3 3 3 3 4 7 6 8 8
25 29 27 26 26 28 29 43 46 40 33 39 40 44 41 48 46 38 32 28 26 24 30 24 28 31 34 39 41 41 40 37 38 33 31 28 17 15 11 9 10 10 10 7 5 8 7 9 9
26 26 31 23 22 22 22 44 28 24 32 35 34 34 37 38 41 37 34 31 26 25 26 29 24 25 31 34 32 33 36 34 38 36 38 36 30 22 15 15 14 16 18 8 7 7 9 10 11
22 30 23 24 20 22 21 33 22 28 34 37 36 34 35 35 35 35 32 31 30 28 25 33 31 29 22 25 30 37 34 36 34 30 32 36 30 27 17 14 16 17 18 11 8 8 9 10 13
26 25 24 27 22 25 30 30 31 36 39 42 41 38 34 34 36 34 31 29 29 29 26 28 42 35 29 26 28 29 36 39 37 40 39 30 32 15 19 10 12 12 17 16 13 10 10 9 13
27 28 29 29 27 32 35 37 39 41 42 44 43 39 36 35 31 33 32 30 27 28 29 29 29 45 39 33 33 29 36 38 40 37 39 35 19 17 15 12 10 11 9 18 16 11 9 10 12
26 29 31 29 28 31 36 42 43 43 43 39 40 39 34 33 27 34 36 34 33 31 28 30 30 30 39 40 38 35 36 36 37 38 40 36 20 17 15 13 12 10 16 10 10 9 10 11 10
26 30 31 34 33 36 39 43 37 28 28 29 34 30 27 24 27 30 34 35 34 34 34 30 30 30 31 36 43 45 40 41 45 41 41 43 22 20 19 15 14 12 14 12 9 9 8 13 11
29 24 28 33 35 37 30 40 32 31 29 25 19 20 20 23 22 23 28 32 36 36 35 35 34 32 30 30 35 42 53 50 48 47 43 39 23 22 20 18 14 12 10 12 11 10 8 9 14
30 24 31 33 37 40 37 36 36 23 20 21 18 19 22 24 24 25 27 28 31 34 37 38 37 37 35 33 32 35 39 45 49 41 40 39 38 26 23 19 16 15 15 14 12 11 8 8 11
25 29 32 33 34 38 36 31 31 21 20 15 16 25 22 24 26 24 26 29 31 32 33 36 39 39 38 37 36 35 37 38 37 35 29 32 34 25 22 20 17 18 18 14 12 11 10 9 11
23 30 36 35 27 31 20 27 29 25 22 20 31 30 26 26 25 27 32 32 32 35 36 36 37 41 41 42 41 39 39 41 42 39 36 34 29 26 22 20 21 21 20 17 12 12 11 10 12
21 27 35 38 35 32 26 31 24 18 21 27 28 25 22 21 25 30 34 33 35 36 37 39 41 42 42 45 46 44 44 43 43 42 39 36 33 29 27 21 20 19 18 16 13 12 11 11 14
19 21 28 37 39 42 36 30 27 20 20 22 23 21 26 25 31 34 33 32 34 38 38 39 42 45 45 45 46 47 48 48 47 46 42 40 38 32 28 26 21 18 18 15 13 12 11 13 14
12 21 22 21 34 38 31 30 28 18 24 21 23 27 29 29 38 38 37 36 36 38 40 42 43 47 48 48 47 48 49 49 50 49 47 44 38 33 35 28 23 20 18 16 14 13 13 13 13
12 12 16 28 28 34 37 25 15 22 25 28 28 30 28 37 38 36 37 37 39 40 42 44 46 48 48 49 50 49 50 50 50 51 50 46 39 33 34 29 25 22 20 17 15 14 13 13 12
20 25 16 19 22 23 35 41 25 21 25 25 27 33 38 37 35 33 35 36 37 39 43 46 48 50 49 50 50 51 50 49 48 49 49 45 42 36 33 29 25 22 20 18 16 14 13 12 11
Wind_Direction
298 299 282 276 270 268 262 272 271 284 287 285 285 272 272 275 277 295 300 302 15 130 134 140 134 132 126 127 130 128 127 124 123 121 120 119 118 117 115 111 106 100 96 94 93 86 82 77 75
305 306 296 266 260 259 262 268 270 276 286 286 286 279 271 271 288 276 266 289 304 132 139 141 139 136 133 130 131 131 130 128 125 123 121 122 121 119 116 113 110 106 100 96 94 92 85 82 77
305 302 282 264 256 252 260 270 273 276 285 284 284 287 283 281 289 283 276 275 263 142 144 143 144 139 139 136 133 133 133 131 129 126 123 123 123 120 119 117 114 109 105 100 96 96 91 87 82
303 294 287 261 258 255 255 266 271 277 282 284 284 285 289 290 290 288 270 261 243 160 150 146 149 146 145 143 139 137 135 133 133 128 126 124 124 124 124 121 116 113 109 105 103 101 94 87 82
297 285 264 263 258 258 256 258 260 272 282 283 284 285 288 297 297 295 278 259 225 173 154 149 152 149 147 146 144 141 138 137 136 130 130 129 131 129 128 123 116 116 111 109 106 107 99 91 83
278 280 263 259 259 259 260 260 259 262 276 281 279 284 285 303 306 300 281 257 244 194 164 152 154 152 150 148 147 145 141 140 138 135 133 131 130 130 125 118 117 118 112 108 105 104 100 94 87
272 270 262 266 259 260 260 264 256 261 264 276 280 280 282 300 308 303 283 259 247 199 184 163 157 157 155 154 151 149 145 142 138 135 137 132 130 126 129 122 120 118 113 106 100 98 99 95 94
280 273 266 264 262 267 273 274 265 258 261 271 275 276 280 292 301 295 287 260 245 223 206 192 164 165 163 163 164 166 159 146 141 138 136 137 127 126 133 125 122 119 115 104 97 86 93 92 96
284 269 264 265 266 272 277 274 275 276 263 260 271 275 280 286 288 291 291 268 248 234 226 213 198 193 188 182 187 197 188 170 149 142 136 134 137 133 138 131 118 122 111 109 100 82 84 79 84
271 270 268 275 277 272 274 271 278 276 263 262 262 272 279 286 284 283 288 278 247 240 235 233 217 213 211 214 215 205 189 179 163 159 153 155 155 135 142 123 117 116 115 110 106 90 75 67 67
278 271 278 276 280 279 273 270 274 274 268 271 257 269 276 283 280 281 281 283 259 245 239 241 238 235 232 229 236 241 231 229 202 171 165 156 155 133 129 111 95 124 115 113 98 89 79 64 53
282 283 282 281 281 279 275 274 271 272 275 291 258 268 272 275 276 275 276 278 271 248 244 242 238 237 238 239 240 243 246 252 256 251 233 185 164 121 93 120 77 83 89 88 100 70 57 40 31
286 286 289 286 283 281 279 272 273 273 277 282 262 262 269 274 273 272 273 273 268 254 252 243 241 236 237 240 241 239 246 253 258 262 266 241 246 267 349 5 24 35 59 57 49 55 30 21 15
300 291 288 288 287 285 277 273 272 271 279 271 269 256 264 266 273 273 270 269 266 261 251 257 248 245 246 242 240 241 243 249 256 258 264 268 273 288 305 317 329 350 24 25 24 16 17 10 10
294 291 291 288 287 284 284 272 267 272 271 268 267 263 265 260 261 264 266 269 274 268 248 263 259 250 245 242 243 247 245 250 249 255 257 263 273 283 294 308 319 327 333 344 360 357 3 359 4
294 293 289 292 296 290 285 272 279 273 270 269 270 272 270 266 259 260 262 261 273 274 251 252 266 261 253 251 252 254 259 257 249 256 252 257 265 276 287 297 309 319 319 339 346 352 353 351 354
291 287 292 291 302 295 290 282 275 275 273 270 271 274 272 267 260 260 264 265 265 275 268 253 259 264 268 264 254 255 259 256 260 261 258 258 268 272 282 293 303 317 312 331 338 342 341 346 349
288 290 290 290 298 297 289 284 281 278 272 269 270 271 275 271 263 259 261 266 264 270 275 270 256 256 268 266 263 264 258 254 260 255 259 270 267 264 276 286 292 306 316 318 324 329 340 339 348
292 290 289 291 295 293 288 284 278 275 274 270 270 272 273 270 271 257 260 265 274 276 272 276 272 254 259 261 261 267 259 261 259 264 260 264 256 259 266 271 283 283 289 310 317 320 327 334 346
292 288 288 293 295 294 290 281 279 275 273 275 274 272 272 270 271 259 262 266 269 274 281 275 278 273 262 261 259 265 271 265 264 263 261 264 249 238 248 250 261 278 298 302 306 305 320 331 344
292 288 289 289 293 293 289 283 283 287 283 281 278 282 276 274 273 269 268 266 271 271 274 279 279 279 276 272 267 260 267 264 259 262 263 259 253 234 240 247 265 277 292 301 298 300 296 325 336
293 301 295 292 291 287 299 283 287 289 284 287 288 285 282 282 282 282 279 273 270 273 277 275 276 279 279 279 272 264 256 260 261 262 260 266 258 247 245 258 259 266 275 294 298 300 289 306 324
293 302 296 293 289 287 286 284 287 291 283 288 290 294 290 287 285 283 283 286 281 278 279 276 275 274 276 277 273 268 261 261 262 267 264 269 263 260 257 255 255 266 275 287 286 293 280 299 317
302 297 294 293 291 284 284 280 288 286 290 284 292 302 295 291 288 286 287 285 284 287 287 276 273 273 275 273 271 269 266 265 266 270 268 253 265 267 258 253 254 269 278 276 280 282 287 289 309
300 294 289 285 282 287 299 291 282 295 299 293 293 296 292 294 292 287 289 287 287 285 285 283 276 273 274 271 270 268 265 265 264 265 266 267 269 269 266 256 259 266 271 274 272 279 280 288 306
305 294 284 281 281 283 297 290 301 313 303 303 299 300 299 295 297 294 293 289 288 287 286 283 281 279 278 273 269 268 265 265 265 264 264 266 267 269 271 266 266 260 262 263 267 277 276 295 305
315 297 297 283 281 281 284 289 299 307 310 307 302 306 300 297 299 297 298 294 291 289 287 285 283 280 279 277 272 269 266 265 264 263 265 265 266 268 270 268 262 260 258 255 260 268 280 301 304
289 304 300 291 281 277 283 288 296 306 312 311 308 299 303 299 301 298 298 296 293 291 290 288 284 282 278 277 274 270 267 266 264 263 263 263 266 265 268 267 263 260 255 252 253 271 285 297 302
308 293 290 290 285 281 280 294 318 315 316 311 309 307 307 306 306 304 300 300 295 293 290 288 285 283 279 277 273 271 268 267 265 261 260 261 263 263 263 262 261 256 250 248 252 270 283 291 299
299 294 286 281 289 283 280 278 305 325 321 323 318 309 303 304 305 305 305 303 298 295 294 290 286 283 278 276 273 268 267 266 265 262 258 258 260 261 260 257 253 251 249 247 253 267 279 285 293